STARLINK-36325, 67861

Orbit data source: Space-Track

STARLINK-36325, 67861 is a payload satellite owned by SpaceX/Seattle (US) in LEO that was launched on Fri, 20 Feb 2026 UTC via an FALCON 9 launch vehicle from the Air Force Eastern Test Range (AFETR). Payload-class satellites include a variety of spacecraft equipped with specific instruments for various scientific and technological missions. These include communications satellites like Starlink; space stations such as the ISS; scientific satellites like the Hubble; Earth observation satellites from companies like Planet Labs, Umbra, and HawkEye 360; GPS; miniature CubeSats for education and research; and military/defense satellites.

Loading next visibility...
Identifier
67861, 2026-034M
Orbit
LEO
Country
Flag of USUS
Related business
Manufacturer
SpaceX/Seattle
Mission
Operational Commercial Communications
Bus & Motor
STARLINK V2MO, Unknown motor
Mass
575 kg wet, ~530 kg dry
Launch date (UTC)
2026-02-20 (4 months ago)
Launch vehicle
FALCON 9
Launch site
Air Force Eastern Test Range (AFETR)
Object type
Payload
Rocket body
Debris
Shape & HBR
Box + 2 Pan, 17.7 m
Radar Cross Section
36.964 m², Large (>1 m²)

Expand to show TLE details & history
Last TLE update: 1 day ago

TLE from 1 day ago
0 STARLINK-36325
1 67861U 26034M   26170.91721538  .00027668  00000-0  94320-3 0  9995
2 67861  53.1599  89.6655 0001159  82.8409 277.2723 15.30186602 19684
Epoch: 2026-06-19T22:00Z
TLE epoch observation values (Epoch: 2026-06-19T22:00:47.408Z)
Latitude
-0.00008°
Longitude
-148.67141°
Altitude
476.054 km
Speed
7.629 km/s
True Right ascension
05h 58m 39s
True Declination
0° 00' 00"
Sunlit
Object was in daylight at epoch
Visualization orbit readout
Latitude
Unknown
Longitude
Unknown
Altitude
Unknown
Speed
Unknown
Apparent Right ascension
Unknown
Apparent Declination
Unknown
Sunlit
N/A
Visualization observer readout
Local Sidereal Time
08:33:36
Azimuth
Unknown
Elevation
Unknown
Doppler factor
Unknown
Orbital elements
Apogee altitude
476.306 km
Perigee altitude
474.717 km
Semi-major axis
6,853.649 km
Eccentricity
0.00012
Inclination
53.1599°
RAAN
89.6655°
Arg. of periapsis
82.8409°
True anomaly
277.25913°
Mean anomaly
277.2723°
Eccentric anomaly
277.26571°
Mean motion
3.82526 °/min
Orbital period
94.11 mins
BSTAR
0.0009432
Loading maneuver chart data...
Computing Atmospheric mass density...
Loading historical data...
Loading historical data...
Loading historical data...
Loading historical data...
Loading historical data...
Loading historical data...
Loading historical data...

Documentation

Showing up to 5 results
|